Back to catalog

STARLINK-35625

AliveCommunicationsVLEO
NORAD 66140·PAYLOAD·🇺🇸 United States

Launched Oct 22, 2025 from Vandenberg Space Force Base

Loading…

Next Passes (next 24 hours)

TLE

FreshSource: CelesTrak SupGP

Epoch: Sep 14, 2026, 15:23 UTC

1 66140C 25237AC  26257.64145833 -.00024188  00000+0 -71488-3 0  2574
2 66140  53.1570 238.8938 0001263  86.5898 254.4570 15.34392010    13

Track STARLINK-35625 in real time with AllMySat

Download on the App Store